Location: CAO
(44.5093°N, 80.3921°W)
Time: 09:31:51
(UTC-05:00)

ISS - Visible Passes

Search period start: 25 February 2021 00:00
Search period end: 07 March 2021 00:00
Orbit: 417 x 422 km, 51.6° (Epoch: 26 February)

Date Brightness Start Highest point End Pass type
(mag) Time Alt. Az. Time Alt. Az. Time Alt. Az.
25 Feb -3.0 05:02:06 52° ENE 05:02:06 52° ENE 05:04:45 10° ENE visible
25 Feb -2.4 06:35:31 10° WNW 06:38:29 28° NNW 06:41:27 10° NE visible
26 Feb -0.6 04:16:37 15° ENE 04:16:37 15° ENE 04:17:15 10° ENE visible
26 Feb -2.8 05:49:35 24° WNW 05:50:54 34° NNW 05:54:01 10° NE visible
27 Feb -2.7 05:04:00 38° NNE 05:04:00 38° NNE 05:06:35 10° NE visible
28 Feb -0.7 04:18:23 16° NE 04:18:23 16° NE 04:19:09 10° NE visible
28 Feb -2.2 05:51:21 17° NW 05:53:03 25° N 05:55:55 10° NE visible
01 Mar -2.3 05:05:41 28° N 05:05:41 28° N 05:08:24 10° NE visible
02 Mar -0.9 04:19:59 16° NE 04:19:59 16° NE 04:20:54 10° NE visible
02 Mar -2.0 05:52:57 13° NW 05:55:15 23° N 05:58:02 10° ENE visible
03 Mar -2.0 05:07:14 23° NNW 05:07:34 23° N 05:10:21 10° NE visible
04 Mar -1.0 04:21:31 17° NE 04:21:31 17° NE 04:22:44 10° NE visible
04 Mar -2.1 05:54:28 10° NW 05:57:22 28° NNE 06:00:20 10° ENE visible
05 Mar -2.0 05:08:46 22° NNW 05:09:41 25° N 05:12:32 10° ENE visible
06 Mar -1.3 04:23:04 20° NNE 04:23:04 20° NNE 04:24:45 10° ENE visible
06 Mar -2.8 05:56:05 10° NW 05:59:20 45° NNE 06:02:35 10° E visible
